TimeMST,TemperatureF,Dew PointF,Humidity,Sea Level PressureIn,VisibilityMPH,Wind Direction,Wind SpeedMPH,Gust SpeedMPH,PrecipitationIn,Events,Conditions,WindDirDegrees,DateUTC
12:15 AM,32.0,32.0,100,30.26,7.0,Calm,Calm,-,N/A,,Clear,0,2012-12-31 07:15:00
12:35 AM,32.0,32.0,100,30.27,10.0,SSE,3.5,-,N/A,,Clear,150,2012-12-31 07:35:00
12:55 AM,33.8,33.8,100,30.26,10.0,SE,5.8,-,N/A,,Clear,130,2012-12-31 07:55:00
1:15 AM,33.8,33.8,100,30.26,10.0,SSE,3.5,-,N/A,,Scattered Clouds,150,2012-12-31 08:15:00
1:35 AM,33.8,33.8,100,30.27,10.0,SE,3.5,-,N/A,,Scattered Clouds,140,2012-12-31 08:35:00
1:55 AM,33.8,33.8,100,30.26,10.0,SSE,3.5,-,N/A,,Clear,160,2012-12-31 08:55:00
2:15 AM,32.0,32.0,100,30.27,10.0,Calm,Calm,-,N/A,,Clear,0,2012-12-31 09:15:00
2:35 AM,32.0,32.0,100,30.27,10.0,SE,4.6,-,N/A,,Clear,140,2012-12-31 09:35:00
2:55 AM,33.8,32.0,93,30.27,10.0,SSE,5.8,-,N/A,,Clear,150,2012-12-31 09:55:00
3:15 AM,33.8,33.8,100,30.27,10.0,SE,4.6,-,N/A,,Scattered Clouds,140,2012-12-31 10:15:00
3:35 AM,33.8,33.8,100,30.27,10.0,SSE,4.6,-,N/A,,Mostly Cloudy,160,2012-12-31 10:35:00
3:55 AM,33.8,33.8,100,30.28,10.0,South,3.5,-,N/A,,Scattered Clouds,170,2012-12-31 10:55:00
4:15 AM,33.8,33.8,100,30.27,10.0,SE,3.5,-,N/A,,Scattered Clouds,130,2012-12-31 11:15:00
4:35 AM,33.8,33.8,100,30.27,10.0,South,4.6,-,N/A,,Clear,190,2012-12-31 11:35:00
4:55 AM,33.8,33.8,100,30.25,10.0,SE,5.8,-,N/A,,Mostly Cloudy,130,2012-12-31 11:55:00
5:15 AM,33.8,33.8,100,30.25,10.0,Calm,Calm,-,N/A,,Overcast,0,2012-12-31 12:15:00
5:35 AM,33.8,33.8,100,30.24,10.0,SSE,3.5,-,N/A,,Mostly Cloudy,160,2012-12-31 12:35:00
5:55 AM,33.8,33.8,100,30.24,10.0,SE,4.6,-,N/A,,Mostly Cloudy,130,2012-12-31 12:55:00
6:15 AM,33.8,33.8,100,30.24,10.0,SSE,4.6,-,N/A,,Mostly Cloudy,150,2012-12-31 13:15:00
6:35 AM,33.8,33.8,100,30.22,10.0,SE,4.6,-,N/A,,Mostly Cloudy,130,2012-12-31 13:35:00
6:55 AM,33.8,33.8,100,30.22,10.0,WSW,3.5,-,N/A,,Mostly Cloudy,240,2012-12-31 13:55:00
7:15 AM,33.8,33.8,100,30.21,10.0,South,3.5,-,N/A,,Overcast,180,2012-12-31 14:15:00
7:35 AM,33.8,33.8,100,30.21,10.0,South,3.5,-,N/A,,Overcast,180,2012-12-31 14:35:00
7:55 AM,35.6,35.6,100,30.23,10.0,Calm,Calm,-,N/A,,Overcast,0,2012-12-31 14:55:00
8:15 AM,35.6,33.8,93,30.25,10.0,SE,3.5,-,N/A,,Overcast,130,2012-12-31 15:15:00
8:35 AM,35.6,35.6,100,30.25,10.0,ESE,4.6,-,N/A,,Overcast,110,2012-12-31 15:35:00
8:55 AM,35.6,33.8,93,30.25,10.0,Calm,Calm,-,N/A,,Overcast,0,2012-12-31 15:55:00
9:15 AM,35.6,33.8,93,30.26,10.0,WSW,5.8,-,N/A,,Overcast,250,2012-12-31 16:15:00
9:35 AM,35.6,33.8,93,30.28,10.0,SE,4.6,-,N/A,,Overcast,140,2012-12-31 16:35:00
9:55 AM,37.4,35.6,93,30.28,10.0,ESE,3.5,-,N/A,,Overcast,120,2012-12-31 16:55:00
10:15 AM,37.4,33.8,87,30.27,10.0,NE,3.5,-,N/A,,Overcast,40,2012-12-31 17:15:00
10:35 AM,37.4,35.6,93,30.27,7.0,West,3.5,-,N/A,,Drizzle,270,2012-12-31 17:35:00
10:55 AM,37.4,35.6,93,30.27,10.0,Calm,Calm,-,N/A,Snow,Light Snow,0,2012-12-31 17:55:00
11:15 AM,37.4,35.6,93,30.27,10.0,SSE,3.5,-,N/A,Rain,Light Rain,160,2012-12-31 18:15:00
11:35 AM,37.4,35.6,93,30.28,10.0,SSE,5.8,-,N/A,,Overcast,160,2012-12-31 18:35:00
11:55 AM,37.4,35.6,93,30.27,10.0,East,4.6,-,N/A,,Overcast,90,2012-12-31 18:55:00
12:15 PM,39.2,35.6,87,30.28,10.0,Calm,Calm,-,N/A,,Light Drizzle,0,2012-12-31 19:15:00
12:35 PM,39.2,37.4,93,30.27,7.0,Calm,Calm,-,N/A,,Light Drizzle,0,2012-12-31 19:35:00
12:55 PM,41.0,37.4,87,30.26,10.0,SE,3.5,-,N/A,,Overcast,130,2012-12-31 19:55:00
1:15 PM,41.0,37.4,87,30.25,10.0,Calm,Calm,-,N/A,,Overcast,0,2012-12-31 20:15:00
1:35 PM,42.8,37.4,81,30.24,10.0,East,8.1,-,N/A,,Overcast,80,2012-12-31 20:35:00
1:55 PM,42.8,37.4,81,30.24,10.0,East,8.1,-,N/A,,Overcast,80,2012-12-31 20:55:00
2:15 PM,44.6,37.4,76,30.24,10.0,ESE,3.5,-,N/A,,Overcast,110,2012-12-31 21:15:00
2:35 PM,44.6,37.4,76,30.24,10.0,ESE,4.6,-,N/A,,Overcast,120,2012-12-31 21:35:00
2:55 PM,44.6,37.4,76,30.23,10.0,East,4.6,-,N/A,,Overcast,80,2012-12-31 21:55:00
3:15 PM,44.6,39.2,81,30.24,10.0,East,4.6,-,N/A,,Overcast,100,2012-12-31 22:15:00
3:35 PM,44.6,37.4,76,30.24,10.0,East,6.9,-,N/A,,Overcast,80,2012-12-31 22:35:00
3:55 PM,44.6,37.4,76,30.24,10.0,ENE,5.8,-,N/A,,Overcast,70,2012-12-31 22:55:00
4:15 PM,44.6,39.2,81,30.25,10.0,ENE,4.6,-,N/A,,Overcast,70,2012-12-31 23:15:00
4:35 PM,46.4,39.2,76,30.26,10.0,ENE,8.1,-,N/A,,Overcast,70,2012-12-31 23:35:00
4:55 PM,46.4,39.2,76,30.26,10.0,ENE,5.8,-,N/A,,Overcast,60,2012-12-31 23:55:00
5:15 PM,46.4,39.2,76,30.27,10.0,Calm,Calm,-,N/A,,Overcast,0,2013-01-01 00:15:00
5:35 PM,44.6,37.4,76,30.27,10.0,NE,5.8,-,N/A,,Overcast,50,2013-01-01 00:35:00
5:55 PM,44.6,37.4,76,30.28,10.0,ENE,10.4,-,N/A,,Overcast,70,2013-01-01 00:55:00
6:15 PM,44.6,37.4,76,30.29,10.0,East,10.4,-,N/A,,Overcast,80,2013-01-01 01:15:00
6:35 PM,42.8,35.6,76,30.29,10.0,ENE,8.1,-,N/A,,Overcast,60,2013-01-01 01:35:00
7:15 PM,42.8,35.6,76,30.31,10.0,NE,8.1,-,N/A,,Overcast,50,2013-01-01 02:15:00
7:35 PM,42.8,35.6,76,30.31,10.0,NE,8.1,-,N/A,,Overcast,50,2013-01-01 02:35:00
8:35 PM,41.0,35.6,81,30.33,10.0,ENE,8.1,-,N/A,,Overcast,60,2013-01-01 03:35:00
8:55 PM,41.0,33.8,76,30.33,10.0,ENE,9.2,-,N/A,,Overcast,70,2013-01-01 03:55:00
9:15 PM,41.0,33.8,76,30.34,10.0,East,5.8,-,N/A,,Overcast,80,2013-01-01 04:15:00
9:35 PM,41.0,33.8,76,30.34,10.0,ENE,4.6,-,N/A,,Overcast,60,2013-01-01 04:35:00
9:55 PM,41.0,33.8,76,30.33,10.0,East,10.4,16.1,N/A,,Mostly Cloudy,80,2013-01-01 04:55:00
10:15 PM,41.0,35.6,81,30.34,10.0,Calm,Calm,-,N/A,,Clear,0,2013-01-01 05:15:00
10:35 PM,39.2,33.8,81,30.35,10.0,SW,4.6,-,N/A,,Clear,230,2013-01-01 05:35:00
10:55 PM,35.6,33.8,93,30.36,10.0,West,5.8,-,N/A,,Clear,260,2013-01-01 05:55:00
11:15 PM,35.6,35.6,100,30.36,10.0,ESE,3.5,-,N/A,,Clear,110,2013-01-01 06:15:00
11:35 PM,35.6,33.8,93,30.37,10.0,Calm,Calm,-,N/A,,Clear,0,2013-01-01 06:35:00
11:55 PM,33.8,33.8,100,30.37,10.0,Calm,Calm,-,N/A,,Clear,0,2013-01-01 06:55:00